Wind_Speed
8 9 8 8 9 10 7 14 15 16 17 16 17 18 19 21 24 25 29 30 30 25 23 23 24 22 24 27 28 24 22 21 19 19 21 22 19 17 16 15 12 13 12 12 12 13 13 14 15
11 10 8 9 8 5 10 22 19 23 20 21 19 18 18 21 23 25 28 32 33 31 24 23 24 24 26 28 27 26 21 20 20 20 21 23 23 21 17 17 14 13 13 12 12 12 13 14 14
13 12 11 10 10 5 16 24 24 27 23 22 21 21 24 28 29 34 33 34 35 34 29 25 23 25 28 30 27 23 22 20 21 21 21 22 22 21 18 18 17 14 14 13 13 13 13 14 14
15 15 14 14 14 15 21 28 25 27 29 25 26 25 30 29 34 35 35 37 37 37 35 30 26 24 28 31 26 22 23 23 21 22 22 22 21 22 21 18 18 18 16 15 14 13 13 14 15
18 19 18 17 18 23 24 27 30 30 33 31 29 27 32 39 34 37 38 40 40 39 38 34 32 26 30 30 28 23 22 22 22 23 25 23 22 21 23 20 19 20 19 17 17 16 15 14 16
23 24 22 18 16 24 28 31 31 33 35 38 38 38 37 46 37 39 41 36 39 39 37 34 33 31 31 31 27 23 22 22 23 23 24 24 24 22 24 24 22 22 22 21 20 18 17 16 16
28 30 26 25 23 25 30 33 34 36 38 37 41 46 44 54 37 44 43 33 33 33 33 33 32 32 32 32 28 24 23 24 23 24 23 24 25 24 24 25 24 24 24 23 23 21 19 17 17
32 34 31 29 30 29 32 37 37 40 43 38 49 54 52 60 50 45 40 29 25 25 28 32 32 31 30 32 28 26 25 25 24 25 25 25 25 25 25 25 26 26 26 25 23 22 21 19 19
33 36 35 32 34 33 36 40 40 45 50 49 53 46 48 54 44 35 30 28 24 24 27 29 33 28 29 30 29 27 28 28 26 26 27 28 27 26 27 25 28 28 28 27 26 24 23 22 21
36 39 35 37 41 39 43 46 49 52 41 34 36 36 33 29 27 27 27 27 25 25 25 22 22 22 23 26 28 29 28 29 29 28 29 30 29 29 29 30 30 30 30 28 28 26 25 24 23
40 38 36 39 44 47 49 51 53 40 20 30 30 27 25 22 27 28 26 25 22 23 23 20 19 20 22 25 25 27 28 28 29 31 30 31 31 31 31 33 33 33 32 31 29 28 28 27 25
44 39 41 44 46 53 55 54 33 36 25 29 28 26 24 25 28 29 27 23 21 21 22 21 19 19 20 23 22 23 26 26 29 31 33 32 34 34 34 34 36 35 35 33 32 30 30 29 27
44 47 47 52 54 49 43 36 33 29 28 26 28 27 25 25 26 25 25 25 23 20 22 22 23 20 22 22 22 23 25 27 30 31 32 35 35 35 36 36 38 37 37 34 34 33 32 32 30
47 50 48 53 43 36 34 31 34 30 26 26 27 26 24 23 23 23 24 24 24 23 22 23 23 25 25 25 24 25 26 29 31 32 33 34 35 36 38 37 38 40 40 36 36 35 35 35 34
55 56 47 36 37 35 34 30 31 30 23 24 25 26 24 25 25 25 26 26 24 24 24 20 23 24 24 25 25 26 26 30 31 31 34 33 36 38 40 38 38 40 41 40 39 40 39 37 37
49 46 38 33 33 31 29 25 27 28 26 27 27 28 27 27 28 28 27 27 27 27 24 24 20 21 23 23 23 23 26 28 31 33 34 36 38 39 41 39 38 41 43 43 42 43 44 41 40
43 33 32 31 27 25 28 28 27 27 28 27 29 28 28 30 31 32 31 30 31 30 28 26 25 26 29 26 27 28 27 24 26 30 35 39 39 40 40 41 40 40 43 44 43 44 46 46 44
33 31 32 28 27 27 24 28 29 29 30 31 32 31 31 32 34 34 35 37 35 35 35 32 33 32 31 33 33 32 29 25 28 32 35 40 43 46 43 43 42 42 45 44 44 47 46 49 48
29 35 34 29 29 28 24 28 29 33 34 38 37 34 36 37 39 37 37 40 42 42 43 42 41 41 39 40 40 38 37 37 41 37 34 39 46 45 48 48 44 45 45 45 45 48 47 48 51
36 36 36 34 33 32 28 24 28 34 38 39 39 39 38 39 39 42 42 42 44 48 51 52 50 49 49 51 49 48 44 40 41 41 41 46 44 46 49 51 50 49 49 46 46 48 49 50 51
38 39 39 40 40 39 36 29 30 34 33 37 44 45 42 40 43 46 46 48 50 53 53 56 59 59 56 56 52 55 56 53 51 44 41 44 45 47 51 53 53 53 51 48 47 48 49 51 52
42 41 43 42 45 44 45 36 34 32 38 43 48 50 47 47 48 48 50 53 57 59 60 62 62 64 67 64 60 58 57 57 57 55 51 50 52 54 52 56 56 54 53 51 50 50 50 51 53
44 43 45 44 46 48 50 49 31 32 37 52 54 55 55 56 57 57 58 61 61 64 66 64 66 70 71 74 69 70 65 60 60 62 61 57 55 56 58 60 60 57 58 55 52 52 50 51 53
49 50 50 51 51 52 52 51 36 30 49 59 59 60 63 66 67 65 65 63 62 64 65 68 70 72 77 81 80 79 77 74 69 64 65 64 62 59 61 62 63 60 60 58 53 53 53 50 53
49 51 52 54 55 53 51 54 52 55 63 67 67 67 66 66 71 75 77 79 79 79 79 80 81 81 82 82 85 84 87 86 85 79 72 68 68 66 65 64 66 62 63 61 56 55 56 54 55
52 51 55 58 58 56 51 54 62 55 57 70 72 73 71 73 73 74 75 79 81 85 89 89 92 93 95 95 93 91 88 91 93 91 87 85 75 67 68 66 66 68 65 64 59 61 62 58 57
53 58 59 64 64 64 65 63 59 59 64 72 71 72 74 74 74 77 80 85 88 93 98 103 102 103 105 102 100 94 92 92 91 89 84 82 81 78 69 68 66 74 69 66 64 59 75 63 56
59 64 66 66 65 64 66 64 66 56 70 72 70 72 74 79 81 84 87 90 94 98 100 97 99 97 95 92 88 77 76 75 76 74 67 66 62 60 62 64 67 75 72 69 63 63 63 65 52
65 66 65 65 65 63 66 68 65 68 66 69 72 74 80 82 87 88 89 92 93 90 81 82 75 69 67 58 59 61 58 55 53 52 54 50 51 54 58 64 69 74 74 73 68 65 62 69 59
60 62 65 63 61 62 63 70 63 66 70 73 74 79 82 86 89 89 87 80 76 65 60 59 61 54 57 54 26 40 46 43 45 50 54 52 54 59 63 63 70 70 74 71 67 61 65 60 55
Wind_Direction
253 253 256 268 280 294 307 260 282 286 292 305 309 311 309 303 302 301 302 305 305 304 309 313 315 317 315 314 318 315 312 310 313 320 326 322 324 317 314 311 303 302 312 314 317 315 316 310 307
246 246 250 260 274 301 272 263 290 290 297 302 304 308 312 307 309 308 307 305 303 300 302 305 307 312 317 311 308 312 307 303 309 317 322 320 322 320 315 310 304 294 295 303 309 309 306 307 306
247 249 252 255 266 247 236 275 278 291 294 299 304 307 310 305 302 307 309 303 303 301 296 299 301 305 307 308 307 303 301 302 306 313 316 314 315 313 311 308 304 293 289 296 302 304 300 295 296
251 252 253 257 258 264 263 279 283 288 289 296 299 297 298 301 309 302 303 307 304 293 296 293 300 307 307 304 300 295 290 296 302 307 307 306 307 308 308 303 301 294 288 289 293 298 296 291 285
269 269 267 266 267 270 275 278 282 285 289 292 294 292 295 297 301 309 304 302 298 288 285 292 295 300 308 300 296 292 289 289 294 298 299 302 303 305 303 301 296 291 287 285 287 292 294 291 282
276 276 276 272 265 274 282 280 283 283 285 291 296 294 291 293 294 302 308 301 300 285 284 288 292 294 309 299 294 293 291 288 288 293 295 298 299 302 302 302 297 291 286 284 282 282 285 286 283
281 280 279 282 276 275 276 282 280 281 285 292 296 292 292 288 294 297 305 303 304 287 283 287 290 296 309 295 292 293 289 287 286 286 287 290 293 297 299 297 295 291 284 281 282 281 281 283 285
283 283 285 287 282 278 277 282 280 283 283 292 291 290 287 285 286 289 295 296 303 292 286 287 290 296 297 290 291 295 292 286 288 289 285 283 286 290 294 296 292 289 285 281 279 279 281 285 288
281 283 286 287 279 281 283 281 281 285 287 294 287 287 277 279 283 286 287 291 294 297 286 288 286 287 287 293 298 299 299 295 290 287 285 282 282 285 290 291 288 286 284 281 280 281 280 283 287
280 281 289 287 286 284 286 289 291 293 295 278 273 284 284 280 282 280 284 287 291 290 287 290 286 287 288 291 294 297 295 293 291 289 285 283 281 282 289 289 289 288 285 281 279 280 280 282 286
279 282 285 288 291 294 289 288 294 290 292 274 282 289 286 283 279 282 283 282 282 283 283 282 283 285 286 287 291 294 294 291 290 290 288 285 281 282 286 288 288 286 282 280 277 277 278 279 284
277 280 281 282 287 295 290 287 280 286 283 275 281 277 274 274 277 281 284 286 280 279 281 286 287 285 286 287 290 288 291 291 289 289 288 286 283 284 285 286 287 285 282 279 277 275 275 276 280
279 280 284 285 284 290 284 279 282 286 277 277 275 278 280 278 278 279 284 285 288 285 282 283 285 286 283 287 290 292 291 289 286 285 285 286 285 285 285 284 284 283 281 277 274 273 273 275 277
276 284 285 284 284 276 276 280 282 281 277 275 276 277 278 279 278 280 279 279 281 282 284 288 287 284 285 286 288 290 290 289 289 288 286 283 283 285 283 284 282 282 280 276 271 269 272 274 275
278 282 282 279 271 275 278 280 281 281 284 275 275 278 278 275 275 274 274 275 274 275 276 283 286 293 294 292 291 290 286 285 286 285 285 287 284 284 282 282 277 277 277 276 270 268 269 271 274
278 276 270 268 270 273 275 277 274 281 282 278 276 275 277 276 278 277 273 271 268 269 270 272 270 276 279 285 287 287 286 284 290 287 285 286 283 283 282 281 278 275 275 275 270 268 268 268 270
271 262 262 260 269 264 272 278 279 277 276 276 273 272 273 278 280 279 274 266 265 263 260 265 276 277 281 277 282 284 281 280 282 289 289 282 278 276 275 277 276 273 270 271 271 271 269 267 265
258 258 251 260 264 266 263 272 273 275 278 277 271 270 271 275 274 278 279 275 268 263 259 263 267 271 273 278 284 282 278 279 288 299 298 289 284 278 273 271 270 268 269 270 270 271 269 269 265
256 254 259 258 262 261 264 266 267 273 278 274 271 271 270 268 267 274 276 274 268 266 263 263 263 265 265 270 271 274 278 276 285 283 290 295 293 286 279 274 269 266 266 266 266 269 270 267 267
250 255 255 258 259 265 275 275 276 278 271 270 272 273 268 271 273 271 272 273 270 268 267 267 266 263 264 267 270 270 264 265 274 281 285 286 290 279 272 272 274 271 270 266 266 267 268 267 265
258 257 257 258 262 270 280 279 290 277 280 273 269 267 270 276 277 275 272 271 272 273 273 272 271 266 263 263 260 263 268 269 269 269 274 281 281 278 274 269 270 270 270 267 267 266 266 267 264
259 261 262 264 268 273 276 282 276 289 282 282 279 277 275 275 274 274 273 273 271 273 273 274 272 269 268 260 254 257 260 260 263 263 263 263 271 274 279 273 268 267 267 265 264 263 264 265 263
263 263 263 269 270 271 272 274 289 280 281 277 283 285 284 282 282 282 281 278 278 273 273 271 272 270 268 263 261 260 257 258 261 260 262 265 268 270 272 277 270 266 265 263 266 266 262 262 263
263 265 267 267 270 270 274 276 275 278 278 286 287 285 282 280 283 282 282 281 282 282 283 283 279 273 271 270 266 263 259 259 260 261 259 260 264 267 265 265 272 266 264 265 266 266 262 261 260
262 268 268 269 269 271 275 276 282 281 281 285 286 286 287 289 286 284 283 282 282 284 285 285 284 281 278 272 268 267 267 263 261 259 261 260 259 263 268 261 263 264 262 263 263 262 262 259 260
265 267 267 269 271 273 271 275 287 280 280 287 285 286 291 289 288 288 288 288 287 286 287 287 285 281 278 274 269 266 265 265 265 261 259 259 257 257 261 258 257 258 259 260 262 263 260 257 261
267 269 270 270 272 271 275 276 282 282 277 281 288 293 291 289 288 289 289 289 290 289 287 285 285 283 280 274 270 269 262 260 261 263 259 258 255 253 254 253 251 256 257 257 258 266 253 253 260
268 270 273 273 273 273 277 280 283 271 280 287 289 289 290 289 290 290 291 291 290 287 287 287 283 281 280 279 279 272 270 268 269 267 263 258 253 255 253 251 247 252 254 256 260 260 265 266 260
270 272 272 270 272 274 277 278 281 283 287 286 288 288 287 290 291 290 288 286 286 286 289 286 286 290 286 287 285 278 263 264 253 252 246 239 249 243 239 242 243 246 250 253 253 259 258 257 267
271 267 269 271 273 273 274 282 287 286 287 289 288 287 289 288 288 288 288 290 289 286 284 283 278 290 293 280 315 260 263 248 245 235 230 234 234 234 236 235 240 244 251 257 254 250 263 263 276
Height
5888 5888 5888 5889 5892 5890 5891 5890 5888 5886 5887 5887 5887 5887 5887 5884 5882 5884 5878 5876 5875 5874 5873 5871 5870 5868 5866 5864 5862 5860 5858 5857 5855 5854 5853 5851 5848 5846 5846 5846 5845 5844 5843 5842 5841 5841 5842 5842 5840
5886 5887 5888 5887 5888 5891 5894 5884 5884 5881 5882 5882 5882 5882 5882 5879 5878 5877 5875 5872 5870 5870 5870 5867 5866 5864 5862 5861 5859 5857 5855 5854 5853 5851 5849 5848 5846 5845 5843 5843 5842 5842 5842 5841 5840 5839 5838 5839 5838
5884 5885 5886 5886 5886 5888 5887 5880 5880 5878 5879 5879 5878 5878 5877 5874 5873 5871 5870 5868 5866 5865 5865 5863 5861 5860 5859 5856 5854 5853 5852 5850 5849 5847 5846 5844 5843 5841 5840 5839 5838 5838 5838 5838 5837 5837 5837 5836 5836
5880 5882 5884 5884 5884 5883 5880 5876 5877 5875 5873 5876 5874 5873 5870 5870 5868 5867 5866 5863 5862 5860 5860 5858 5856 5855 5854 5853 5851 5849 5848 5847 5845 5844 5842 5840 5839 5839 5837 5836 5835 5835 5835 5834 5834 5835 5834 5834 5834
5877 5878 5879 5881 5880 5878 5876 5874 5872 5871 5868 5868 5868 5869 5865 5862 5864 5863 5861 5858 5855 5853 5853 5853 5852 5850 5849 5849 5847 5845 5843 5842 5841 5840 5839 5838 5837 5835 5834 5833 5832 5832 5832 5831 5831 5830 5831 5831 5831
5873 5872 5875 5876 5877 5874 5873 5871 5869 5867 5864 5862 5862 5861 5859 5852 5856 5856 5855 5852 5849 5847 5846 5848 5846 5845 5843 5843 5842 5841 5839 5838 5837 5836 5836 5835 5833 5832 5831 5831 5830 5829 5828 5828 5827 5826 5827 5826 5827
5867 5867 5869 5871 5871 5870 5867 5865 5863 5861 5859 5860 5858 5852 5853 5839 5852 5847 5848 5846 5842 5840 5841 5841 5840 5839 5838 5838 5837 5836 5834 5834 5833 5832 5831 5830 5829 5829 5828 5827 5827 5827 5825 5824 5824 5824 5823 5823 5823
5861 5861 5862 5865 5863 5864 5862 5859 5857 5855 5853 5858 5849 5844 5842 5831 5841 5842 5840 5838 5836 5835 5836 5836 5835 5834 5834 5832 5832 5831 5830 5829 5828 5827 5827 5826 5826 5825 5824 5824 5823 5823 5823 5821 5819 5820 5819 5819 5819
5855 5854 5855 5857 5854 5855 5854 5851 5852 5849 5846 5848 5836 5836 5832 5828 5831 5834 5833 5831 5831 5830 5830 5830 5830 5829 5827 5825 5826 5826 5825 5825 5824 5823 5822 5821 5822 5821 5819 5819 5819 5818 5817 5817 5816 5815 5815 5815 5814
5847 5846 5849 5847 5845 5847 5844 5842 5841 5840 5840 5833 5828 5828 5826 5824 5826 5827 5825 5825 5823 5823 5823 5823 5823 5823 5821 5820 5820 5819 5820 5819 5819 5818 5818 5817 5818 5816 5815 5814 5815 5814 5812 5812 5811 5810 5810 5810 5809
5838 5840 5841 5841 5839 5837 5835 5833 5832 5829 5833 5825 5825 5824 5823 5822 5821 5820 5819 5818 5816 5816 5816 5816 5816 5816 5815 5815 5816 5815 5814 5814 5813 5813 5812 5812 5812 5810 5810 5809 5809 5809 5807 5807 5806 5806 5805 5805 5805
5830 5832 5830 5832 5830 5829 5826 5824 5825 5824 5825 5820 5819 5817 5817 5816 5815 5813 5813 5812 5811 5811 5810 5811 5811 5811 5810 5809 5810 5809 5809 5808 5807 5807 5807 5806 5806 5806 5805 5805 5803 5803 5803 5803 5802 5801 5801 5800 5800
5823 5823 5824 5821 5822 5821 5817 5817 5818 5820 5816 5815 5813 5812 5812 5811 5810 5809 5808 5806 5806 5806 5806 5805 5806 5805 5805 5804 5803 5802 5802 5801 5800 5800 5801 5800 5800 5801 5800 5799 5798 5797 5796 5796 5796 5796 5796 5795 5795
5815 5815 5815 5814 5813 5811 5810 5812 5811 5811 5810 5809 5807 5806 5806 5806 5805 5804 5803 5803 5802 5801 5800 5800 5800 5799 5798 5797 5796 5796 5795 5795 5795 5794 5795 5793 5792 5793 5792 5792 5791 5791 5790 5790 5790 5790 5789 5789 5789
5806 5806 5806 5806 5805 5806 5805 5807 5804 5803 5804 5803 5802 5800 5800 5799 5799 5798 5798 5798 5797 5796 5795 5795 5794 5794 5793 5792 5791 5790 5789 5787 5786 5786 5786 5786 5785 5785 5784 5785 5783 5783 5783 5783 5783 5783 5783 5783 5782
5795 5796 5797 5798 5799 5799 5798 5800 5797 5796 5797 5796 5796 5795 5795 5793 5792 5792 5793 5794 5792 5791 5789 5787 5787 5785 5785 5784 5783 5782 5782 5781 5780 5779 5777 5777 5776 5777 5776 5776 5777 5775 5775 5775 5775 5775 5775 5775 5775
5786 5788 5789 5790 5791 5793 5790 5791 5790 5790 5789 5790 5788 5789 5788 5788 5787 5786 5787 5786 5785 5784 5782 5781 5781 5780 5778 5776 5774 5774 5772 5772 5772 5771 5770 5767 5766 5766 5768 5767 5767 5768 5766 5766 5767 5766 5766 5766 5767
5777 5779 5781 5783 5785 5784 5785 5784 5784 5782 5782 5782 5780 5781 5782 5781 5780 5781 5781 5780 5779 5778 5776 5773 5771 5770 5768 5768 5767 5766 5764 5763 5762 5763 5763 5760 5759 5758 5758 5757 5758 5758 5757 5757 5758 5757 5758 5758 5758
5770 5772 5773 5775 5776 5776 5778 5778 5778 5777 5775 5771 5771 5774 5772 5771 5771 5773 5772 5771 5771 5770 5769 5766 5763 5760 5759 5757 5756 5755 5755 5753 5752 5751 5750 5750 5747 5747 5747 5746 5747 5747 5746 5747 5747 5747 5748 5748 5749
5762 5764 5765 5766 5768 5767 5769 5771 5771 5769 5765 5765 5763 5761 5760 5761 5763 5761 5761 5760 5760 5758 5756 5755 5753 5750 5750 5747 5746 5744 5741 5740 5741 5740 5739 5739 5737 5736 5736 5734 5738 5737 5736 5737 5737 5737 5738 5737 5740
5754 5755 5756 5757 5758 5760 5760 5760 5762 5757 5758 5757 5753 5753 5753 5753 5752 5750 5750 5748 5747 5745 5744 5742 5740 5738 5734 5738 5731 5730 5728 5728 5728 5727 5727 5728 5727 5724 5723 5721 5722 5724 5725 5726 5726 5726 5727 5727 5729
5744 5746 5746 5748 5750 5752 5752 5748 5752 5755 5748 5742 5738 5739 5743 5742 5740 5739 5737 5736 5735 5733 5731 5728 5725 5722 5718 5718 5718 5714 5713 5713 5711 5711 5711 5711 5713 5713 5711 5709 5710 5710 5711 5714 5715 5714 5715 5716 5717
5735 5736 5736 5738 5739 5740 5742 5741 5743 5739 5743 5729 5729 5727 5725 5724 5722 5723 5723 5721 5720 5719 5717 5715 5710 5706 5701 5696 5700 5697 5694 5694 5693 5694 5695 5695 5697 5699 5699 5697 5697 5699 5698 5702 5703 5703 5703 5704 5705
5723 5724 5726 5727 5727 5727 5730 5731 5738 5729 5724 5719 5718 5717 5714 5712 5710 5707 5703 5701 5699 5698 5697 5696 5693 5688 5685 5679 5680 5677 5675 5674 5673 5674 5677 5677 5680 5681 5684 5684 5684 5685 5686 5688 5689 5690 5691 5692 5690
5712 5713 5713 5713 5711 5716 5717 5715 5724 5715 5701 5704 5704 5701 5699 5697 5694 5690 5686 5682 5679 5675 5673 5673 5671 5668 5661 5656 5654 5656 5654 5650 5651 5654 5656 5658 5660 5663 5668 5671 5670 5672 5673 5675 5676 5676 5677 5679 5678
5698 5700 5700 5699 5700 5701 5703 5697 5709 5697 5681 5686 5684 5685 5683 5679 5676 5672 5668 5663 5660 5655 5646 5640 5639 5639 5632 5629 5625 5623 5626 5624 5623 5626 5631 5636 5639 5643 5648 5653 5657 5656 5658 5661 5663 5662 5663 5665 5667
5684 5683 5684 5681 5684 5681 5689 5686 5691 5682 5671 5670 5670 5668 5663 5661 5658 5655 5650 5644 5640 5631 5622 5609 5606 5602 5597 5593 5588 5586 5591 5590 5595 5597 5603 5610 5616 5622 5628 5634 5640 5640 5643 5646 5649 5648 5644 5651 5652
5670 5668 5668 5666 5666 5663 5672 5673 5670 5659 5650 5655 5653 5646 5644 5641 5640 5635 5629 5621 5614 5603 5594 5583 5571 5567 5561 5555 5553 5556 5558 5562 5566 5571 5578 5585 5594 5598 5607 5615 5623 5624 5627 5630 5633 5636 5636 5639 5641
5653 5652 5652 5650 5650 5647 5649 5658 5652 5644 5642 5635 5634 5632 5626 5622 5619 5614 5609 5600 5592 5577 5567 5556 5551 5545 5543 5538 5533 5530 5532 5541 5542 5550 5556 5561 5572 5579 5588 5595 5602 5605 5609 5612 5618 5622 5625 5628 5627
5639 5634 5633 5634 5636 5633 5630 5642 5636 5626 5624 5619 5615 5606 5600 5596 5588 5582 5575 5568 5562 5557 5550 5539 5536 5534 5532 5529 5518 5513 5515 5518 5525 5531 5537 5544 5551 5560 5570 5577 5583 5588 5592 5598 5600 5605 5612 5612 5613